Sharm El Sheikh, Egypt

6:08 PM EET on August 19, 2017 (GMT +0200)
Sharm El Sheikh

Weather History for HESH - November, 2012

Change the Weather History Date:

Saturday, November 10, 2012

  Actual Average Record
Temperature  
Mean Temperature 79 °F -  
Max Temperature 87 °F 79 °F - ()
Min Temperature 71 °F 63 °F - ()
Cooling Degree Days 14    
Growing Degree Days 29 (Base 50)    
Moisture  
Dew Point 51 °F    
Average Humidity 42    
Maximum Humidity 57    
Minimum Humidity 27    
Precipitation  
Precipitation 0.00 in 0.00 in - ()
Sea Level Pressure  
Sea Level Pressure 29.91 in    
Wind  
Wind Speed 7 mph ()    
Max Wind Speed 14 mph    
Max Gust Speed -    
Visibility 6.2 miles    
Events      
T = Trace of Precipitation, MM = Missing Value Source: Averaged Metar Reports

Daily Weather History Graph

Daily Weather History Graph

Search for Another Location

Airport or City:

Trip Planner

Search our weather history database for the weather conditions in past years. The results will help you decide how hot, cold, wet, or windy it might be!

Date:

Astronomy

Nov. 10, 2012 Rise Set
Actual Time 6:00 AM EET 4:52 PM EET
Civil Twilight 5:35 AM EET 5:16 PM EET
Nautical Twilight 5:07 AM EET 5:44 PM EET
Astronomical Twilight 4:39 AM EET 6:12 PM EET
Moon 2:01 AM EET (11/10) 2:10 PM EET (11/10)
Length of Visible Light 11h 41m
Length of Day
10h 51m
Waning Crescent, 17% of the Moon is Illuminated
Nov 10
Waning Crescent
Nov 14
New
Nov 20
First Quarter
Nov 28
Full
Dec 6
Last Quarter

Hourly Weather History & Observations

Time (EET) Temp. Dew Point Humidity Pressure Visibility Wind Dir Wind Speed Gust Speed Precip Events Conditions
12:00 AM 75.2 °F 59.0 °F 57% 29.86 in - North 10.4 mph - N/A   Clear
1:00 AM 75.2 °F 59.0 °F 57% 29.86 in - North 6.9 mph - N/A   Clear
2:00 AM 75.2 °F 51.8 °F 44% 29.86 in - North 6.9 mph - N/A   Clear
3:00 AM 73.4 °F 50.0 °F 44% 29.86 in - North 5.8 mph - N/A   Clear
5:00 AM 71.6 °F 50.0 °F 46% 29.89 in - North 12.7 mph - N/A   Clear
6:00 AM 71.6 °F 50.0 °F 46% 29.89 in - North 13.8 mph - N/A   Clear
7:00 AM 71.6 °F 51.8 °F 50% 29.92 in - North 9.2 mph - N/A   Clear
8:00 AM 77.0 °F 50.0 °F 39% 29.95 in - North 11.5 mph - N/A   Clear
9:00 AM 80.6 °F 48.2 °F 32% 29.95 in - North 11.5 mph - N/A   Clear
10:00 AM 84.2 °F 50.0 °F 30% 29.95 in - NNE 5.8 mph - N/A   Clear
11:00 AM 86.0 °F 50.0 °F 29% 29.95 in - NNE 8.1 mph - N/A   Clear
12:00 PM 86.0 °F 50.0 °F 29% 29.92 in 6.2 mi East 6.9 mph - N/A   Partly Cloudy
1:00 PM 87.8 °F 50.0 °F 27% 29.92 in - East 6.9 mph - N/A   Clear
2:00 PM 86.0 °F 50.0 °F 29% 29.89 in - ENE 6.9 mph - N/A   Clear
3:00 PM 86.0 °F 50.0 °F 29% 29.89 in - NNE 4.6 mph - N/A   Clear
4:00 PM 82.4 °F 51.8 °F 35% 29.89 in - ENE 5.8 mph - N/A   Clear
5:00 PM 77.0 °F 51.8 °F 41% 29.89 in - NNE 4.6 mph - N/A   Clear
6:00 PM 73.4 °F 50.0 °F 44% 29.92 in - North 4.6 mph - N/A   Clear
7:00 PM 73.4 °F 51.8 °F 47% 29.92 in - Variable 3.5 mph - N/A   Clear
8:00 PM 71.6 °F 51.8 °F 50% 29.95 in - NW 3.5 mph - N/A   Clear
9:00 PM 71.6 °F 51.8 °F 50% 29.95 in - WNW 3.5 mph - N/A   Clear
10:00 PM 71.6 °F 51.8 °F 50% 29.95 in - West 3.5 mph - N/A   Clear
11:00 PM 71.6 °F 53.6 °F 53% 29.98 in - West 3.5 mph - N/A   Clear